Printer-friendly version

IAU Minor Planet Center

Minor Planet Center

MPEC 2002-D17 : 2002 BK25

The following Minor Planet Electronic Circular may be linked-to from your own Web pages, but must not otherwise be redistributed electronically.


Read MPEC 2002-D16 Read MPEC 2002-D18


M.P.E.C. 2002-D17                                Issued 2002 Feb. 21, 18:41 UT

     The Minor Planet Electronic Circulars contain information on unusual
         minor planets and routine data on comets.  They are published
   on behalf of Commission 20 of the International Astronomical Union by the
          Minor Planet Center, Smithsonian Astrophysical Observatory,
                          Cambridge, MA 02138, U.S.A.

             Prepared using the Tamkin Foundation Computer Network

                              MPC@CFA.HARVARD.EDU
          URL http://cfa-www.harvard.edu/iau/mpc.html  ISSN 1523-6714

                                   2002 BK25

                           Revision to MPEC 2002-C52

Observations:
     K02B25K 1 1995 02 04.34514 10 30 55.54 +01 18 11.9                      261
     K02B25K 1 1995 02 04.39375 10 30 53.13 +01 18 40.9                      261

Observer details:
261 Palomar-DSS.  Trail located and measured by DANEOPS (A. Gnadig).
    1.2-m Schmidt.

Orbital elements:
2002 BK25                                                            PHA 0.046
Epoch 2001 Oct. 18.0 TT = JDT 2452200.5                 MPC
M 305.54298              (2000.0)            P               Q
n   0.28315957     Peri.  103.58005     -0.16376226     +0.98305491
a   2.2967579      Node   156.50854     -0.96603518     -0.14288581
e   0.7489152      Incl.   11.92575     -0.19989486     -0.11483328
P   3.48           H   18.0           G   0.15           U   4
Residuals in seconds of arc
950204 261  0.8+  0.7-    020213 322  0.1-  0.1+    020218 198  0.2-  0.0
950204 261  0.8-  0.4+    020214 649  0.0   0.4+    020218 198  0.2-  0.1+
020125 644  0.0   0.5+    020214 649  0.1+  0.4+    020218 198  0.2-  0.2+
020125 644  0.2+  0.4-    020214 127  0.5-  0.3+    020218 452  0.8-  0.2+
020125 644  0.5+  0.3+    020214 127  0.7-  0.3+    020218 452  0.6+  0.5+
020126 644  0.1-  0.1-    020214 127  0.2-  0.1+    020218 452  0.3+  0.3+
020126 644  0.6+  0.7+    020215 761  0.4-  1.3-    020218 761  0.2-  0.4+
020126 644  0.1-  0.2-    020215 761  0.3+  1.4-    020218 761  0.2+  0.4+
020126 644  1.0+  0.7+    020215 761  0.3+  1.1-    020218 761  1.3+  0.2-
020126 644  0.1+  0.1-    020215 557  0.0   0.0     020218 587  0.4+  0.1+
020126 644  0.7+  0.6+    020215 557  0.3-  0.1+    020218 587  0.2+  1.1+
020207 699  0.5-  0.7+    020216 557  0.0   0.2+    020218 587  0.4+  0.2+
020207 699  0.5-  0.7+    020216 557  0.1-  0.2+    020218 587  0.3-  0.3+
020207 699  0.5-  0.7+    020216 557  0.2-  0.2+    020218 587  0.3+  0.4-
020207 699  0.1-  0.6+    020216 557  0.2+  0.1-    020219 333  0.6+  0.6+
020208 678  0.5-  0.6-    020216 557  0.1+  0.0     020219 333  0.3+  0.0
020208 678 (2.2-  1.2-)   020216 636  0.4+  0.5+    020219 333  0.4-  0.2+
020208 678  1.3-  0.2-    020216 636  0.0   0.0     020219 112  1.1-  0.4-
020208 678  0.4-  1.4-    020216 636  0.0   0.3+    020219 112  0.3-  0.3-
020208 704  0.2+  0.4-    020216 557  0.1-  0.2+    020219 112  0.5-  0.1-
020208 704  0.3-  0.6-    020216 557  0.2-  0.0     020219 112  0.5-  0.4-
020208 704  0.1-  0.3+    020217 649  0.0   0.5+    020219 112  0.9-  0.3-
020208 704  0.3+  0.4+    020217 649  0.1+  0.5+    020220 704  0.3+  0.0
020208 704  0.6+  0.1-    020217 649  0.0   0.5+    020220 704  0.3+  0.2-
020209 678  1.5-  1.3-    020217 151  0.2+  0.2+    020220 704  0.5+  0.3-
020209 678  1.1-  1.4-    020217 151  0.2-  0.4+    020220 704  0.4+  0.4-
020211 322  0.7+  0.7-    020217 151  0.2-  0.4+    020220 704  0.4+  0.5-
020211 322 (1.7+  3.1-)   020217 151  0.5+  0.2+    020220 670  0.3+  0.4+
020211 322  0.1+  0.4-    020217 151  0.2+  0.2+    020220 670  0.1-  0.1+
020212 785  1.5+  0.3-    020217 151  0.2+  0.1-    020220 670  0.2+  0.3-
020212 785 (3.5-  2.5-)   020218 198  0.3-  0.1+    020220 379  0.1+  0.6-
020213 322  0.2+  0.1-    020218 198  0.2-  0.2+    020220 379  0.1+  0.6-
020213 322  0.3+  0.0     020218 198  0.1-  0.0

Ephemeris:
2002 BK25                a,e,i = 2.30, 0.75, 12                  q = 0.5767
Date    TT    R. A. (2000) Decl.     Delta      r     Elong.  Phase     V
2002 02 15    10 56.85   +02 09.1    0.364    1.337   161.0    13.9    17.2
2002 02 16    10 56.49   +02 30.9    0.349    1.325   162.3    13.1    17.1
2002 02 17    10 56.06   +02 54.8    0.335    1.313   163.6    12.3    17.0
2002 02 18    10 55.57   +03 21.3    0.321    1.301   164.9    11.4    16.8
2002 02 19    10 55.00   +03 50.5    0.306    1.288   166.3    10.5    16.6
2002 02 20    10 54.36   +04 22.7    0.292    1.276   167.7     9.5    16.5
2002 02 21    10 53.63   +04 58.4    0.279    1.264   169.2     8.4    16.3
2002 02 22    10 52.80   +05 38.0    0.265    1.251   170.7     7.3    16.1
2002 02 23    10 51.85   +06 22.0    0.251    1.239   172.3     6.2    15.9
2002 02 24    10 50.79   +07 11.2    0.238    1.226   173.9     4.9    15.7
2002 02 25    10 49.58   +08 06.2    0.225    1.214   175.5     3.7    15.5
2002 02 26    10 48.20   +09 08.2    0.212    1.201   176.9     2.6    15.3
2002 02 27    10 46.62   +10 18.1    0.199    1.189   177.5     2.1    15.1
2002 02 28    10 44.81   +11 37.6    0.186    1.176   176.5     3.0    15.0
2002 03 01    10 42.71   +13 08.3    0.174    1.164   174.5     4.7    14.9
2002 03 02    10 40.26   +14 52.7    0.161    1.151   172.1     6.8    14.9
2002 03 03    10 37.37   +16 53.5    0.149    1.138   169.3     9.3    14.8
2002 03 04    10 33.92   +19 14.4    0.138    1.126   166.1    12.3    14.7
2002 03 05    10 29.72   +22 00.1    0.127    1.113   162.4    15.6    14.6
2002 03 06    10 24.52   +25 16.2    0.116    1.100   158.2    19.5    14.5
2002 03 07    10 17.93   +29 09.8    0.105    1.088   153.4    24.2    14.4
2002 03 08    10 09.31   +33 49.2    0.096    1.075   147.7    29.6    14.4
2002 03 09    09 57.59   +39 22.7    0.087    1.062   141.0    36.1    14.3
2002 03 10    09 40.83   +45 55.5    0.080    1.049   133.1    43.8    14.3
2002 03 11    09 15.23   +53 23.4    0.074    1.036   123.9    52.7    14.4
2002 03 12    08 32.81   +61 18.1    0.070    1.023   113.6    62.9    14.5
2002 03 13    07 17.59   +68 19.7    0.068    1.011   102.4    73.8    14.8
2002 03 14    05 16.4    +71 48.4    0.068    0.998    91.1    85.0    15.1
2002 03 15    03 12.50   +69 49.6    0.071    0.985    80.4    95.6    15.6
2002 03 16    01 53.97   +64 32.5    0.076    0.972    70.7   105.1    16.2
2002 03 17    01 09.76   +58 34.9    0.083    0.959    62.3   113.3    16.9
2002 03 18    00 43.26   +53 02.0    0.091    0.947    55.3   120.2    17.5
2002 03 19    00 26.03   +48 11.1    0.100    0.934    49.4   125.9    18.2
2002 03 20    00 14.05   +44 02.3    0.109    0.921    44.5   130.7    18.8
2002 03 21    00 05.29   +40 30.6    0.120    0.908    40.5   134.6    19.4
2002 03 22    23 58.64   +37 29.9    0.130    0.896    37.1   137.9    19.9
2002 03 23    23 53.43   +34 54.7    0.142    0.883    34.2   140.6    20.4
2002 03 24    23 49.26   +32 40.3    0.153    0.870    31.9   142.8    20.9
2002 03 25    23 45.87   +30 42.9    0.165    0.858    29.9   144.6    21.3
2002 03 26    23 43.08   +28 59.6    0.177    0.846    28.3   146.0    21.6
2002 03 27    23 40.77   +27 27.9    0.190    0.833    26.9   147.1    21.9

Timothy B. Spahr             (C) Copyright 2002 MPC           M.P.E.C. 2002-D17

Read MPEC 2002-D16 Read MPEC 2002-D18


Our Web policy. Index to the CBAT/MPC/ICQ pages.


Valid HTML 4.01!